DECAYED

CZ-6A DEB, 61379 (Decayed)

Orbit data source: Space-Track

CZ-6A DEB, 61379 was space debris in LEO originally from a launch on Tue, 06 Aug 2024 UTC launched from the Taiyaun Space Center, China (TSC). Debris objects in space refer to the collection of defunct objects orbiting the Earth. Examples of debris include non-operational satellites, rocket bodies, and fragments generated from explosions, collisions, or faulty payload assembly.

Not visible in the next 10 days
Identifier
61379, 2024-140WU
Orbit
Decayed
Country
Flag of CNCN / PRC
Related business
Manufacturer
SAST
Mission
Decayed spacecraft
Bus & Motor
Unknown
Mass
Unknown
Launch date (UTC)
2024-08-06 (2 years ago)
Launch vehicle
Unknown
Launch site
Taiyaun Space Center, China (TSC)
Object type
Payload
Rocket body
Debris
Shape & HBR
Unknown shape, 0.1 m
Radar Cross Section
Medium (>0.1 m² and <1 m²)

Expand to show TLE details & history
Last TLE update: 9 months ago

TLE from 9 months ago
0 CZ-6A DEB
1 61379U 24140WU  25270.63113394  .04840982  40108-1  16186-1 0  9995
2 61379  89.2373 314.5834 0019787 269.3778  90.5240 15.95189062 58247
Epoch: 2025-09-27T15:08Z
TLE epoch observation values (Epoch: 2025-09-27T15:08:49.972Z)
Latitude
-0.00011°
Longitude
80.7144°
Altitude
291.235 km
Speed
7.733 km/s
True Right ascension
20h 58m 20s
True Declination
0° 00' 00"
Sunlit
Object was in full shadow at epoch
Visualization orbit readout
Latitude
Unknown
Longitude
Unknown
Altitude
Unknown
Speed
Unknown
Apparent Right ascension
Unknown
Apparent Declination
Unknown
Sunlit
N/A
Visualization observer readout
Local Sidereal Time
10:17:10
Azimuth
Unknown
Elevation
Unknown
Doppler factor
Unknown
Orbital elements
Apogee altitude
297.675 km
Perigee altitude
271.308 km
Semi-major axis
6,662.628 km
Eccentricity
0.00198
Inclination
89.2373°
RAAN
314.5834°
Arg. of periapsis
269.3778°
True anomaly
90.75073°
Mean anomaly
90.524°
Eccentric anomaly
90.63736°
Mean motion
3.99094 °/min
Orbital period
90.2 mins
BSTAR
0.016186
Loading maneuver chart data...
Computing Atmospheric mass density...
Loading historical data...
Loading historical data...
Loading historical data...
Loading historical data...
Loading historical data...
Loading historical data...
Loading historical data...

Documentation

Showing up to 5 results
|